| time (UTC) | temp F | wind direction | speed MPH | gust MPH | rain 1hr in | rain 24hr in | rain mn in | humidity % | barometer mb |
| 20260506145548 | 53 | 40 | 8.0 | 10.0 | 0.00 | 0.00 | 0.00 | 79 | 1046.9 |
| 20260506145045 | 53 | 39 | 4.0 | 9.0 | 0.00 | 0.00 | 0.00 | 80 | 1046.7 |
| 20260506144542 | 53 | 40 | 5.0 | 11.0 | 0.00 | 0.00 | 0.00 | 79 | 1047.0 |
| 20260506144039 | 53 | 45 | 7.0 | 13.0 | 0.00 | 0.00 | 0.00 | 78 | 1047.1 |
| 20260506143537 | 53 | 23 | 7.0 | 11.0 | 0.00 | 0.00 | 0.00 | 77 | 1047.2 |
| 20260506143035 | 53 | 31 | 6.0 | 11.0 | 0.00 | 0.00 | 0.00 | 77 | 1046.8 |
| 20260506142532 | 53 | 49 | 7.0 | 10.0 | 0.00 | 0.00 | 0.00 | 77 | 1046.7 |
| 20260506142031 | 53 | 45 | 9.0 | 13.0 | 0.00 | 0.00 | 0.00 | 76 | 1046.0 |
| 20260506141528 | 53 | 54 | 13.0 | 13.0 | 0.00 | 0.00 | 0.00 | 76 | 1045.9 |
| 20260506141026 | 53 | 26 | 5.0 | 8.0 | 0.00 | 0.00 | 0.00 | 76 | 1045.9 |
| 20260506140523 | 53 | 27 | 4.0 | 10.0 | 0.00 | 0.00 | 0.00 | 76 | 1045.6 |
| 20260506140021 | 53 | 27 | 5.0 | 12.0 | 0.00 | 0.00 | 0.00 | 76 | 1045.8 |
| 20260506135517 | 53 | 30 | 5.0 | 11.0 | 0.00 | 0.00 | 0.00 | 76 | 1045.6 |
| 20260506135013 | 53 | 7 | 7.0 | 11.0 | 0.00 | 0.00 | 0.00 | 78 | 1045.5 |
| 20260506134510 | 53 | 36 | 9.0 | 11.0 | 0.00 | 0.00 | 0.00 | 77 | 1045.7 |
| 20260506134006 | 53 | 61 | 13.0 | 16.0 | 0.00 | 0.00 | 0.00 | 76 | 1045.7 |
| 20260506133504 | 53 | 18 | 7.0 | 12.0 | 0.00 | 0.00 | 0.00 | 77 | 1045.6 |
| 20260506133000 | 52 | 51 | 9.0 | 12.0 | 0.00 | 0.00 | 0.00 | 78 | 1045.3 |
| 20260506132457 | 52 | 48 | 9.0 | 13.0 | 0.00 | 0.00 | 0.00 | 78 | 1045.4 |
| 20260506131955 | 52 | 20 | 7.0 | 15.0 | 0.00 | 0.00 | 0.00 | 78 | 1045.3 |
| 20260506131451 | 52 | 27 | 5.0 | 13.0 | 0.00 | 0.00 | 0.00 | 79 | 1045.2 |
| 20260506130948 | 52 | 43 | 11.0 | 13.0 | 0.00 | 0.00 | 0.00 | 79 | 1045.1 |
| 20260506130444 | 52 | 23 | 9.0 | 17.0 | 0.00 | 0.00 | 0.00 | 78 | 1045.2 |
| 20260506125942 | 52 | 21 | 5.0 | 16.0 | 0.00 | 0.00 | 0.00 | 79 | 1045.1 |
| 20260506125441 | 52 | 39 | 9.0 | 12.0 | 0.00 | 0.00 | 0.00 | 79 | 1045.2 |
| 20260506124938 | 52 | 10 | 5.0 | 12.0 | 0.00 | 0.00 | 0.00 | 80 | 1045.1 |
| 20260506124435 | 52 | 23 | 6.0 | 11.0 | 0.00 | 0.00 | 0.00 | 80 | 1044.9 |
| 20260506123934 | 52 | 19 | 5.0 | 11.0 | 0.00 | 0.00 | 0.00 | 80 | 1045.2 |
| 20260506123431 | 52 | 35 | 8.0 | 12.0 | 0.00 | 0.00 | 0.00 | 80 | 1045.1 |
| 20260506122928 | 51 | 11 | 4.0 | 13.0 | 0.00 | 0.00 | 0.00 | 80 | 1044.9 |
| 20260506122425 | 51 | 34 | 6.0 | 10.0 | 0.00 | 0.00 | 0.00 | 80 | 1044.7 |
| 20260506121924 | 51 | 6 | 8.0 | 11.0 | 0.00 | 0.00 | 0.00 | 81 | 1045.1 |
| 20260506121420 | 51 | 255 | 2.0 | 7.0 | 0.00 | 0.00 | 0.00 | 82 | 1044.9 |
| 20260506120917 | 51 | 11 | 9.0 | 12.0 | 0.00 | 0.00 | 0.00 | 82 | 1045.0 |
| 20260506120415 | 51 | 21 | 6.0 | 11.0 | 0.00 | 0.00 | 0.00 | 82 | 1044.7 |
| 20260506115912 | 51 | 7 | 6.0 | 12.0 | 0.00 | 0.00 | 0.00 | 83 | 1044.6 |
| 20260506115410 | 51 | 15 | 4.0 | 13.0 | 0.00 | 0.00 | 0.00 | 83 | 1044.2 |
| 20260506114908 | 51 | 358 | 5.0 | 12.0 | 0.00 | 0.00 | 0.00 | 83 | 1044.5 |
| 20260506114405 | 51 | 6 | 5.0 | 15.0 | 0.00 | 0.00 | 0.00 | 84 | 1044.5 |
| 20260506113904 | 51 | 9 | 4.0 | 12.0 | 0.00 | 0.00 | 0.00 | 85 | 1044.5 |
| 20260506113401 | 51 | 5 | 3.0 | 14.0 | 0.00 | 0.00 | 0.00 | 86 | 1044.3 |
| 20260506112857 | 50 | 3 | 6.0 | 9.0 | 0.00 | 0.00 | 0.00 | 87 | 1044.3 |
| 20260506112355 | 50 | 20 | 5.0 | 10.0 | 0.00 | 0.00 | 0.00 | 88 | 1044.0 |
| 20260506111852 | 50 | 29 | 6.0 | 10.0 | 0.00 | 0.00 | 0.00 | 88 | 1044.1 |
| 20260506111350 | 50 | 26 | 11.0 | 15.0 | 0.00 | 0.00 | 0.00 | 88 | 1044.2 |
| 20260506110847 | 50 | 17 | 5.0 | 12.0 | 0.00 | 0.00 | 0.00 | 88 | 1044.4 |
| 20260506110344 | 50 | 10 | 9.0 | 13.0 | 0.00 | 0.00 | 0.00 | 87 | 1044.2 |
| 20260506105841 | 50 | 9 | 3.0 | 10.0 | 0.00 | 0.00 | 0.00 | 86 | 1044.0 |
| 20260506105338 | 51 | 24 | 4.0 | 9.0 | 0.00 | 0.00 | 0.00 | 85 | 1044.0 |
| 20260506104835 | 51 | 28 | 10.0 | 13.0 | 0.00 | 0.00 | 0.00 | 84 | 1044.1 |
| 20260506104332 | 51 | 16 | 6.0 | 10.0 | 0.00 | 0.00 | 0.00 | 82 | 1044.1 |
| 20260506103830 | 51 | 356 | 4.0 | 11.0 | 0.00 | 0.00 | 0.00 | 82 | 1043.8 |
| 20260506103327 | 51 | 7 | 9.0 | 11.0 | 0.00 | 0.00 | 0.00 | 82 | 1044.3 |
| 20260506102825 | 51 | 19 | 5.0 | 10.0 | 0.00 | 0.00 | 0.00 | 82 | 1043.8 |
| 20260506102323 | 51 | 6 | 5.0 | 11.0 | 0.00 | 0.00 | 0.00 | 82 | 1043.5 |
| 20260506101820 | 51 | 17 | 5.0 | 15.0 | 0.00 | 0.00 | 0.00 | 81 | 1043.5 |
| 20260506101315 | 51 | 17 | 6.0 | 9.0 | 0.00 | 0.00 | 0.00 | 82 | 1043.5 |
| 20260506100814 | 51 | 33 | 10.0 | 11.0 | 0.00 | 0.00 | 0.00 | 82 | 1043.6 |
| 20260506100312 | 52 | 350 | 5.0 | 10.0 | 0.00 | 0.00 | 0.00 | 81 | 1043.7 |
| 20260506095810 | 52 | 331 | 5.0 | 13.0 | 0.00 | 0.00 | 0.00 | 81 | 1043.4 |
| 20260506095306 | 52 | 352 | 3.0 | 11.0 | 0.00 | 0.00 | 0.00 | 80 | 1043.2 |
| 20260506094803 | 52 | 6 | 5.0 | 8.0 | 0.00 | 0.00 | 0.00 | 80 | 1043.1 |
| 20260506094302 | 52 | 15 | 3.0 | 11.0 | 0.00 | 0.00 | 0.00 | 80 | 1043.1 |
| 20260506093800 | 52 | 11 | 8.0 | 12.0 | 0.00 | 0.00 | 0.00 | 79 | 1042.9 |
| 20260506093256 | 52 | 10 | 7.0 | 10.0 | 0.00 | 0.00 | 0.00 | 79 | 1042.7 |
| 20260506092755 | 52 | 357 | 5.0 | 11.0 | 0.00 | 0.00 | 0.00 | 78 | 1042.6 |
| 20260506092252 | 53 | 29 | 7.0 | 11.0 | 0.00 | 0.00 | 0.00 | 78 | 1042.8 |
| 20260506091749 | 53 | 11 | 7.0 | 12.0 | 0.00 | 0.00 | 0.00 | 77 | 1042.4 |
| 20260506091247 | 53 | 345 | 7.0 | 10.0 | 0.00 | 0.00 | 0.00 | 78 | 1042.5 |
| 20260506090744 | 53 | 20 | 6.0 | 7.0 | 0.00 | 0.00 | 0.00 | 78 | 1042.5 |
| 20260506090241 | 53 | 13 | 4.0 | 9.0 | 0.00 | 0.00 | 0.00 | 78 | 1042.5 |
| 20260506085738 | 53 | 24 | 5.0 | 13.0 | 0.00 | 0.00 | 0.00 | 77 | 1042.3 |
| 20260506085234 | 53 | 7 | 9.0 | 11.0 | 0.00 | 0.00 | 0.00 | 77 | 1042.3 |
| 20260506084731 | 53 | 7 | 5.0 | 11.0 | 0.00 | 0.00 | 0.00 | 76 | 1042.4 |
| 20260506084227 | 53 | 333 | 3.0 | 6.0 | 0.00 | 0.00 | 0.00 | 78 | 1042.3 |
| 20260506083724 | 53 | 358 | 6.0 | 6.0 | 0.00 | 0.00 | 0.00 | 77 | 1042.4 |
| 20260506083222 | 53 | 342 | 4.0 | 6.0 | 0.00 | 0.00 | 0.00 | 77 | 1042.0 |
| 20260506082719 | 53 | 316 | 3.0 | 7.0 | 0.00 | 0.00 | 0.00 | 77 | 1042.4 |
| 20260506082215 | 53 | 24 | 9.0 | 11.0 | 0.00 | 0.00 | 0.00 | 77 | 1041.9 |
| 20260506081713 | 53 | 11 | 6.0 | 10.0 | 0.00 | 0.00 | 0.00 | 77 | 1042.1 |
| 20260506081210 | 53 | 337 | 7.0 | 8.0 | 0.00 | 0.00 | 0.00 | 77 | 1041.9 |
| 20260506080708 | 53 | 18 | 8.0 | 11.0 | 0.00 | 0.00 | 0.00 | 76 | 1041.8 |
| 20260506080204 | 53 | 18 | 7.0 | 10.0 | 0.00 | 0.00 | 0.00 | 76 | 1041.9 |
| 20260506073148 | 53 | 5 | 9.0 | 11.0 | 0.00 | 0.00 | 0.00 | 76 | 1041.6 |
| 20260506072644 | 53 | 16 | 6.0 | 11.0 | 0.00 | 0.00 | 0.00 | 75 | 1041.7 |
| 20260506072142 | 54 | 30 | 11.0 | 12.0 | 0.00 | 0.00 | 0.00 | 75 | 1041.9 |
| 20260506071640 | 54 | 34 | 3.0 | 8.0 | 0.00 | 0.00 | 0.00 | 75 | 1041.7 |
| 20260506071137 | 54 | 23 | 4.0 | 9.0 | 0.00 | 0.00 | 0.00 | 76 | 1041.3 |
| 20260506070634 | 54 | 27 | 7.0 | 12.0 | 0.00 | 0.00 | 0.00 | 76 | 1041.5 |
| 20260506070131 | 54 | 38 | 6.0 | 9.0 | 0.00 | 0.00 | 0.00 | 75 | 1041.6 |
| 20260506062109 | 54 | 22 | 7.0 | 10.0 | 0.00 | 0.00 | 0.00 | 76 | 1041.8 |
| 20260506061604 | 54 | 14 | 9.0 | 10.0 | 0.00 | 0.00 | 0.00 | 75 | 1041.7 |
| 20260506061102 | 54 | 20 | 4.0 | 11.0 | 0.00 | 0.00 | 0.00 | 75 | 1041.8 |
| 20260506060601 | 54 | 21 | 7.0 | 11.0 | 0.00 | 0.00 | 0.00 | 75 | 1041.8 |
| 20260506051029 | 55 | 15 | 7.0 | 12.0 | 0.00 | 0.00 | 0.00 | 75 | 1042.4 |
| 20260506050527 | 55 | 344 | 3.0 | 10.0 | 0.00 | 0.00 | 0.00 | 76 | 1042.0 |
| 20260506045017 | 55 | 14 | 6.0 | 11.0 | 0.00 | 0.00 | 0.00 | 77 | 1041.9 |
| 20260506044515 | 55 | 332 | 2.0 | 11.0 | 0.00 | 0.00 | 0.00 | 77 | 1042.0 |
| 20260506044012 | 55 | 10 | 6.0 | 9.0 | 0.00 | 0.00 | 0.00 | 78 | 1042.0 |
| 20260506043509 | 55 | 4 | 11.0 | 13.0 | 0.00 | 0.00 | 0.00 | 78 | 1041.5 |
| 20260506043007 | 55 | 2 | 4.0 | 7.0 | 0.00 | 0.00 | 0.00 | 79 | 1041.6 |
| 20260506042506 | 55 | 342 | 6.0 | 9.0 | 0.00 | 0.00 | 0.00 | 79 | 1041.8 |
| 20260506042004 | 55 | 28 | 6.0 | 8.0 | 0.00 | 0.00 | 0.00 | 79 | 1041.8 |
| 20260506041502 | 55 | 8 | 3.0 | 9.0 | 0.00 | 0.00 | 0.00 | 79 | 1042.0 |
| 20260506040959 | 55 | 6 | 3.0 | 8.0 | 0.00 | 0.00 | 0.00 | 79 | 1041.9 |
| 20260506040456 | 56 | 340 | 5.0 | 9.0 | 0.00 | 0.00 | 0.00 | 79 | 1042.0 |
| 20260506035952 | 56 | 359 | 5.0 | 10.0 | 0.00 | 0.00 | 0.00 | 79 | 1042.0 |
| 20260506035449 | 56 | 350 | 4.0 | 8.0 | 0.00 | 0.00 | 0.00 | 80 | 1041.8 |
| 20260506034946 | 56 | 312 | 3.0 | 7.0 | 0.00 | 0.00 | 0.00 | 80 | 1042.0 |
| 20260506034443 | 56 | 350 | 6.0 | 7.0 | 0.00 | 0.00 | 0.00 | 80 | 1041.8 |
| 20260506033940 | 56 | 22 | 7.0 | 12.0 | 0.00 | 0.00 | 0.00 | 79 | 1041.6 |
| 20260506033438 | 56 | 346 | 7.0 | 13.0 | 0.00 | 0.00 | 0.00 | 79 | 1041.8 |
| 20260506032934 | 56 | 24 | 9.0 | 10.0 | 0.00 | 0.00 | 0.00 | 79 | 1041.4 |
| 20260506032432 | 57 | 42 | 4.0 | 7.0 | 0.00 | 0.00 | 0.00 | 79 | 1041.4 |
| 20260506031928 | 57 | 6 | 6.0 | 10.0 | 0.00 | 0.00 | 0.00 | 79 | 1041.7 |
| 20260506031425 | 57 | 22 | 5.0 | 11.0 | 0.00 | 0.00 | 0.00 | 79 | 1041.5 |
| 20260506030923 | 57 | 321 | 3.0 | 9.0 | 0.00 | 0.00 | 0.00 | 78 | 1041.3 |
| 20260506030421 | 57 | 15 | 7.0 | 8.0 | 0.00 | 0.00 | 0.00 | 79 | 1041.3 |
| 20260506025917 | 58 | 344 | 6.0 | 10.0 | 0.00 | 0.00 | 0.00 | 79 | 1041.2 |
| 20260506025414 | 58 | 331 | 2.0 | 8.0 | 0.00 | 0.00 | 0.00 | 80 | 1041.1 |
| 20260506024911 | 58 | 347 | 3.0 | 10.0 | 0.00 | 0.00 | 0.00 | 80 | 1040.6 |
| 20260506024408 | 58 | 356 | 3.0 | 10.0 | 0.00 | 0.00 | 0.00 | 80 | 1040.7 |
| 20260506023904 | 58 | 318 | 3.0 | 8.0 | 0.00 | 0.00 | 0.00 | 81 | 1040.9 |
| 20260506023401 | 58 | 20 | 6.0 | 8.0 | 0.00 | 0.00 | 0.00 | 81 | 1040.6 |
| 20260506022857 | 58 | 341 | 3.0 | 7.0 | 0.00 | 0.00 | 0.00 | 81 | 1040.3 |
| 20260506022355 | 58 | 37 | 9.0 | 9.0 | 0.00 | 0.00 | 0.00 | 82 | 1039.6 |
| 20260506021853 | 58 | 15 | 11.0 | 11.0 | 0.00 | 0.00 | 0.00 | 81 | 1039.6 |
| 20260506021350 | 58 | 26 | 7.0 | 11.0 | 0.00 | 0.00 | 0.00 | 82 | 1039.6 |
| 20260506020846 | 58 | 15 | 7.0 | 15.0 | 0.00 | 0.00 | 0.00 | 82 | 1039.4 |
| 20260506020345 | 59 | 33 | 6.0 | 10.0 | 0.00 | 0.00 | 0.00 | 82 | 1039.3 |
| 20260506015842 | 59 | 29 | 7.0 | 14.0 | 0.00 | 0.00 | 0.00 | 82 | 1039.3 |
| 20260506015339 | 59 | 7 | 7.0 | 11.0 | 0.00 | 0.00 | 0.00 | 82 | 1039.2 |
| 20260506014836 | 59 | 25 | 4.0 | 15.0 | 0.00 | 0.00 | 0.00 | 82 | 1039.0 |
| 20260506014333 | 59 | 14 | 4.0 | 9.0 | 0.00 | 0.00 | 0.00 | 82 | 1039.2 |
| 20260506013829 | 59 | 16 | 12.0 | 14.0 | 0.00 | 0.00 | 0.00 | 81 | 1039.0 |
| 20260506013327 | 59 | 320 | 2.0 | 10.0 | 0.00 | 0.00 | 0.00 | 82 | 1039.1 |
| 20260506012823 | 60 | 354 | 4.0 | 10.0 | 0.00 | 0.00 | 0.00 | 81 | 1038.7 |
| 20260506012320 | 60 | 20 | 4.0 | 10.0 | 0.00 | 0.00 | 0.00 | 81 | 1038.9 |
| 20260506011817 | 60 | 335 | 7.0 | 9.0 | 0.00 | 0.00 | 0.00 | 81 | 1038.5 |
| 20260506011314 | 60 | 344 | 5.0 | 10.0 | 0.00 | 0.00 | 0.00 | 81 | 1038.2 |
| 20260506010811 | 60 | 27 | 11.0 | 12.0 | 0.00 | 0.00 | 0.00 | 80 | 1038.2 |
| 20260506010309 | 60 | 0 | 3.0 | 10.0 | 0.00 | 0.00 | 0.00 | 80 | 1038.4 |
| 20260506005806 | 61 | 352 | 4.0 | 10.0 | 0.00 | 0.00 | 0.00 | 80 | 1038.5 |
| 20260506005305 | 61 | 20 | 8.0 | 12.0 | 0.00 | 0.00 | 0.00 | 79 | 1038.4 |
| 20260506004759 | 62 | 4 | 3.0 | 9.0 | 0.00 | 0.00 | 0.00 | 79 | 1038.3 |
| 20260506004257 | 62 | 13 | 5.0 | 12.0 | 0.00 | 0.00 | 0.00 | 78 | 1038.1 |
| 20260506003752 | 62 | 343 | 7.0 | 14.0 | 0.00 | 0.00 | 0.00 | 78 | 1037.8 |
| 20260506003249 | 63 | 9 | 3.0 | 11.0 | 0.00 | 0.00 | 0.00 | 77 | 1037.9 |
| 20260506002745 | 64 | 2 | 6.0 | 9.0 | 0.00 | 0.00 | 0.00 | 77 | 1037.8 |
| 20260506002241 | 64 | 21 | 6.0 | 9.0 | 0.00 | 0.00 | 0.00 | 76 | 1037.8 |
| 20260506001737 | 65 | 13 | 9.0 | 11.0 | 0.00 | 0.00 | 0.00 | 76 | 1037.8 |
| 20260506001235 | 65 | 316 | 6.0 | 11.0 | 0.00 | 0.00 | 0.00 | 76 | 1037.7 |
| 20260506000732 | 66 | 7 | 3.0 | 8.0 | 0.00 | 0.00 | 0.00 | 75 | 1037.5 |
| 20260506000229 | 66 | 3 | 8.0 | 12.0 | 0.00 | 0.00 | 0.00 | 74 | 1037.6 |
| 20260505235726 | 67 | 353 | 3.0 | 9.0 | 0.00 | 0.00 | 0.00 | 75 | 1037.8 |
| 20260505235224 | 67 | 335 | 3.0 | 9.0 | 0.00 | 0.00 | 0.00 | 75 | 1037.8 |
| 20260505234720 | 67 | 354 | 7.0 | 12.0 | 0.00 | 0.00 | 0.00 | 75 | 1037.8 |
| 20260505234218 | 68 | 354 | 4.0 | 8.0 | 0.00 | 0.00 | 0.00 | 75 | 1037.6 |
| 20260505233714 | 68 | 312 | 8.0 | 11.0 | 0.00 | 0.00 | 0.00 | 74 | 1037.6 |
| 20260505233212 | 68 | 306 | 5.0 | 11.0 | 0.00 | 0.00 | 0.00 | 74 | 1037.5 |
| 20260505232709 | 68 | 324 | 7.0 | 14.0 | 0.00 | 0.00 | 0.00 | 74 | 1037.4 |
| 20260505232207 | 68 | 311 | 9.0 | 16.0 | 0.00 | 0.00 | 0.00 | 73 | 1037.4 |
| 20260505231703 | 69 | 307 | 8.0 | 16.0 | 0.00 | 0.00 | 0.00 | 73 | 1037.5 |
| 20260505231203 | 69 | 319 | 10.0 | 17.0 | 0.00 | 0.00 | 0.00 | 72 | 1037.3 |
| 20260505230700 | 70 | 318 | 7.0 | 14.0 | 0.00 | 0.00 | 0.00 | 72 | 1037.1 |
| 20260505230156 | 71 | 319 | 8.0 | 13.0 | 0.00 | 0.00 | 0.00 | 72 | 1037.5 |
| 20260505225653 | 72 | 326 | 10.0 | 12.0 | 0.00 | 0.00 | 0.00 | 72 | 1037.4 |
| 20260505225149 | 73 | 296 | 8.0 | 12.0 | 0.00 | 0.00 | 0.00 | 71 | 1036.9 |
| 20260505224645 | 73 | 323 | 5.0 | 10.0 | 0.00 | 0.00 | 0.00 | 71 | 1036.9 |
| 20260505224143 | 73 | 312 | 6.0 | 15.0 | 0.00 | 0.00 | 0.00 | 70 | 1037.1 |
| 20260505223635 | 73 | 311 | 9.0 | 13.0 | 0.00 | 0.00 | 0.00 | 69 | 1036.8 |
| 20260505223130 | 73 | 284 | 3.0 | 9.0 | 0.00 | 0.00 | 0.00 | 70 | 1036.8 |
| 20260505222627 | 73 | 305 | 9.0 | 10.0 | 0.00 | 0.00 | 0.00 | 69 | 1036.5 |
| 20260505222123 | 74 | 323 | 6.0 | 15.0 | 0.00 | 0.00 | 0.00 | 68 | 1036.4 |
| 20260505221620 | 74 | 311 | 7.0 | 14.0 | 0.00 | 0.00 | 0.00 | 68 | 1036.3 |
| 20260505221117 | 74 | 308 | 5.0 | 10.0 | 0.00 | 0.00 | 0.00 | 69 | 1036.1 |
| 20260505220614 | 74 | 323 | 2.0 | 10.0 | 0.00 | 0.00 | 0.00 | 68 | 1036.2 |
| 20260505220112 | 75 | 319 | 8.0 | 10.0 | 0.00 | 0.00 | 0.00 | 66 | 1036.2 |
| 20260505215609 | 75 | 324 | 8.0 | 12.0 | 0.00 | 0.00 | 0.00 | 65 | 1036.1 |
| 20260505215107 | 75 | 335 | 8.0 | 13.0 | 0.00 | 0.00 | 0.00 | 67 | 1036.2 |
| 20260505214605 | 76 | 315 | 6.0 | 13.0 | 0.00 | 0.00 | 0.00 | 64 | 1036.1 |
| 20260505214102 | 77 | 320 | 6.0 | 12.0 | 0.00 | 0.00 | 0.00 | 65 | 1036.1 |
| 20260505213559 | 76 | 315 | 6.0 | 13.0 | 0.00 | 0.00 | 0.00 | 66 | 1035.9 |
| 20260505213055 | 76 | 310 | 6.0 | 12.0 | 0.00 | 0.00 | 0.00 | 64 | 1035.9 |
| 20260505212552 | 77 | 324 | 6.0 | 10.0 | 0.00 | 0.00 | 0.00 | 64 | 1035.8 |
| 20260505212049 | 77 | 301 | 7.0 | 11.0 | 0.00 | 0.00 | 0.00 | 63 | 1035.9 |
| 20260505211541 | 77 | 294 | 6.0 | 13.0 | 0.00 | 0.00 | 0.00 | 62 | 1036.1 |
| 20260505211037 | 77 | 312 | 5.0 | 12.0 | 0.00 | 0.00 | 0.00 | 61 | 1036.1 |
| 20260505210534 | 78 | 311 | 5.0 | 15.0 | 0.00 | 0.00 | 0.00 | 58 | 1035.9 |
| 20260505210032 | 79 | 314 | 9.0 | 12.0 | 0.00 | 0.00 | 0.00 | 56 | 1036.1 |
| 20260505205530 | 80 | 303 | 6.0 | 12.0 | 0.00 | 0.00 | 0.00 | 54 | 1036.1 |
| 20260505205026 | 80 | 288 | 8.0 | 11.0 | 0.00 | 0.00 | 0.00 | 52 | 1035.9 |
| 20260505204524 | 81 | 296 | 13.0 | 15.0 | 0.00 | 0.00 | 0.00 | 49 | 1036.0 |
| 20260505204021 | 82 | 302 | 7.0 | 10.0 | 0.00 | 0.00 | 0.00 | 49 | 1035.8 |
| 20260505203517 | 82 | 310 | 5.0 | 14.0 | 0.00 | 0.00 | 0.00 | 50 | 1035.8 |
| 20260505203015 | 82 | 306 | 5.0 | 10.0 | 0.00 | 0.00 | 0.00 | 49 | 1036.1 |
| 20260505202511 | 81 | 291 | 6.0 | 16.0 | 0.00 | 0.00 | 0.00 | 49 | 1035.9 |
| 20260505202006 | 82 | 279 | 11.0 | 14.0 | 0.00 | 0.00 | 0.00 | 47 | 1035.6 |
| 20260505201504 | 82 | 291 | 6.0 | 11.0 | 0.00 | 0.00 | 0.00 | 48 | 1035.8 |
| 20260505201001 | 82 | 285 | 8.0 | 14.0 | 0.00 | 0.00 | 0.00 | 45 | 1035.7 |
| 20260505200459 | 82 | 251 | 9.0 | 10.0 | 0.00 | 0.00 | 0.00 | 46 | 1035.7 |
| 20260505195954 | 82 | 286 | 6.0 | 14.0 | 0.00 | 0.00 | 0.00 | 45 | 1035.7 |
| 20260505195452 | 82 | 280 | 11.0 | 16.0 | 0.00 | 0.00 | 0.00 | 45 | 1035.8 |
| 20260505194949 | 83 | 279 | 7.0 | 18.0 | 0.00 | 0.00 | 0.00 | 45 | 1035.6 |
| 20260505194447 | 85 | 299 | 11.0 | 13.0 | 0.00 | 0.00 | 0.00 | 50 | 1035.5 |
| 20260505193947 | 85 | 276 | 5.0 | 13.0 | 0.00 | 0.00 | 0.00 | 57 | 1035.7 |
| 20260505193444 | 84 | 283 | 5.0 | 10.0 | 0.00 | 0.00 | 0.00 | 59 | 1035.3 |
| 20260505192942 | 83 | 263 | 8.0 | 10.0 | 0.00 | 0.00 | 0.00 | 59 | 1035.3 |
| 20260505192440 | 83 | 259 | 5.0 | 9.0 | 0.00 | 0.00 | 0.00 | 60 | 1035.5 |
| 20260505191937 | 82 | 276 | 7.0 | 9.0 | 0.00 | 0.00 | 0.00 | 59 | 1035.2 |
| 20260505191436 | 82 | 288 | 6.0 | 11.0 | 0.00 | 0.00 | 0.00 | 60 | 1035.7 |
| 20260505190932 | 82 | 273 | 6.0 | 9.0 | 0.00 | 0.00 | 0.00 | 59 | 1035.4 |
| 20260505190427 | 82 | 233 | 7.0 | 15.0 | 0.00 | 0.00 | 0.00 | 59 | 1035.4 |
| 20260505185923 | 82 | 273 | 11.0 | 13.0 | 0.00 | 0.00 | 0.00 | 58 | 1035.2 |
| 20260505185421 | 83 | 271 | 6.0 | 10.0 | 0.00 | 0.00 | 0.00 | 58 | 1035.1 |
| 20260505184917 | 83 | 281 | 7.0 | 12.0 | 0.00 | 0.00 | 0.00 | 58 | 1035.3 |
| 20260505184414 | 84 | 277 | 14.0 | 15.0 | 0.00 | 0.00 | 0.00 | 57 | 1035.5 |
| 20260505183910 | 84 | 255 | 3.0 | 12.0 | 0.00 | 0.00 | 0.00 | 58 | 1035.3 |
| 20260505183407 | 83 | 280 | 3.0 | 13.0 | 0.00 | 0.00 | 0.00 | 60 | 1035.2 |
| 20260505182904 | 83 | 269 | 3.0 | 9.0 | 0.00 | 0.00 | 0.00 | 63 | 1035.1 |
| 20260505182401 | 82 | 172 | 2.0 | 9.0 | 0.00 | 0.00 | 0.00 | 63 | 1035.1 |
| 20260505181857 | 81 | 288 | 9.0 | 14.0 | 0.00 | 0.00 | 0.00 | 63 | 1035.4 |
| 20260505181355 | 82 | 273 | 6.0 | 8.0 | 0.00 | 0.00 | 0.00 | 63 | 1035.3 |
| 20260505180851 | 82 | 291 | 8.0 | 13.0 | 0.00 | 0.00 | 0.00 | 63 | 1035.6 |
| 20260505180348 | 82 | 265 | 9.0 | 9.0 | 0.00 | 0.00 | 0.00 | 64 | 1035.6 |
| 20260505175844 | 81 | 266 | 3.0 | 14.0 | 0.00 | 0.00 | 0.00 | 65 | 1035.5 |
| 20260505175340 | 81 | 269 | 2.0 | 8.0 | 0.00 | 0.00 | 0.00 | 66 | 1035.4 |
| 20260505174837 | 81 | 253 | 5.0 | 8.0 | 0.00 | 0.00 | 0.00 | 67 | 1035.5 |
| 20260505174335 | 80 | 259 | 4.0 | 11.0 | 0.00 | 0.00 | 0.00 | 67 | 1035.2 |
| 20260505173831 | 80 | 248 | 9.0 | 13.0 | 0.00 | 0.00 | 0.00 | 66 | 1035.3 |
| 20260505173327 | 80 | 242 | 5.0 | 11.0 | 0.00 | 0.00 | 0.00 | 68 | 1035.6 |
| 20260505172825 | 80 | 252 | 6.0 | 14.0 | 0.00 | 0.00 | 0.00 | 68 | 1035.6 |
| 20260505172322 | 79 | 261 | 6.0 | 8.0 | 0.00 | 0.00 | 0.00 | 70 | 1035.1 |
| 20260505171822 | 79 | 255 | 3.0 | 10.0 | 0.00 | 0.00 | 0.00 | 70 | 1034.8 |
| 20260505171319 | 79 | 199 | 3.0 | 7.0 | 0.00 | 0.00 | 0.00 | 70 | 1034.8 |
| 20260505170815 | 78 | 249 | 4.0 | 7.0 | 0.00 | 0.00 | 0.00 | 72 | 1035.1 |
| 20260505170312 | 78 | 242 | 2.0 | 11.0 | 0.00 | 0.00 | 0.00 | 72 | 1035.3 |
| 20260505165808 | 77 | 228 | 2.0 | 10.0 | 0.00 | 0.00 | 0.00 | 72 | 1035.2 |
| 20260505165306 | 78 | 174 | 3.0 | 11.0 | 0.00 | 0.00 | 0.00 | 72 | 1034.8 |
| 20260505164759 | 78 | 208 | 3.0 | 12.0 | 0.00 | 0.00 | 0.00 | 72 | 1035.0 |
| 20260505164256 | 77 | 339 | 3.0 | 8.0 | 0.00 | 0.00 | 0.00 | 73 | 1034.9 |
| 20260505163755 | 77 | 226 | 5.0 | 11.0 | 0.00 | 0.00 | 0.00 | 73 | 1035.0 |
| 20260505163253 | 77 | 230 | 7.0 | 8.0 | 0.00 | 0.00 | 0.00 | 74 | 1034.9 |
| 20260505162750 | 77 | 219 | 5.0 | 5.0 | 0.00 | 0.00 | 0.00 | 75 | 1035.1 |
| 20260505162247 | 77 | 184 | 5.0 | 6.0 | 0.00 | 0.00 | 0.00 | 74 | 1035.1 |
| 20260505161744 | 76 | 221 | 3.0 | 12.0 | 0.00 | 0.00 | 0.00 | 73 | 1035.1 |
| 20260505161241 | 76 | 274 | 5.0 | 11.0 | 0.00 | 0.00 | 0.00 | 73 | 1035.1 |
| 20260505160738 | 76 | 228 | 4.0 | 9.0 | 0.00 | 0.00 | 0.00 | 75 | 1035.0 |
| 20260505160236 | 76 | 239 | 7.0 | 9.0 | 0.00 | 0.00 | 0.00 | 74 | 1034.7 |
| 20260505153215 | 77 | 250 | 6.0 | 14.0 | 0.00 | 0.00 | 0.00 | 70 | 1034.7 |
| 20260505152712 | 78 | 266 | 7.0 | 9.0 | 0.00 | 0.00 | 0.00 | 69 | 1034.7 |
| 20260505152208 | 78 | 227 | 3.0 | 7.0 | 0.00 | 0.00 | 0.00 | 71 | 1034.3 |
| 20260505151703 | 77 | 255 | 8.0 | 16.0 | 0.00 | 0.00 | 0.00 | 70 | 1034.3 |
| 20260505151201 | 77 | 257 | 4.0 | 13.0 | 0.00 | 0.00 | 0.00 | 72 | 1034.4 |
| 20260505150657 | 77 | 236 | 6.0 | 17.0 | 0.00 | 0.00 | 0.00 | 71 | 1034.4 |
| 20260505150154 | 77 | 286 | 4.0 | 14.0 | 0.00 | 0.00 | 0.00 | 71 | 1034.5 |